Tracking 17145 objects as of 23-May-2015
HD Live streaming from Space Station

OSCAR 36 (UOSAT 12)

Track OSCAR 36 (UOSAT 12) now!
10-day predictions
OSCAR 36 (UOSAT 12) is classified as:


NORAD ID: 25693
Int'l Code: 1999-021A
Perigee: 604.5 km
Apogee: 665.6 km
Inclination: 64.6 °
Period: 97.3 minutes
Semi major axis: 7006 km
RCS: 1.4285 m2 (large)
Launch date: April 21, 1999
Source: United Kingdom (UK)

Used for email and communication services to remote areas.
Your satellite tracking list
Your tracking list is empty





NASA's NSSDC Master Catalog

Two Line Element Set (TLE):
1 25693U 99021A   15142.52063383  .00000319  00000-0  60048-4 0  9994
2 25693 064.5562 297.3067 0043554 243.8447 175.6695 14.80444842868147

Source of the keplerian elements: AFSPC

N2YO: 367